TimePDT,TemperatureF,Dew PointF,Humidity,Sea Level PressureIn,VisibilityMPH,Wind Direction,Wind SpeedMPH,Gust SpeedMPH,PrecipitationIn,Events,Conditions,WindDirDegrees,DateUTC
12:15 AM,64.4,32.0,30,30.16,10.0,NW,4.6,-,N/A,,Clear,320,2012-09-18 07:15:00
12:35 AM,64.4,33.8,32,30.16,10.0,NW,4.6,-,N/A,,Clear,310,2012-09-18 07:35:00
12:55 AM,62.6,32.0,32,30.16,10.0,North,3.5,-,N/A,,Clear,360,2012-09-18 07:55:00
1:15 AM,62.6,33.8,34,30.16,10.0,North,3.5,-,N/A,,Clear,350,2012-09-18 08:15:00
1:35 AM,62.6,33.8,34,30.16,10.0,WNW,3.5,-,N/A,,Clear,300,2012-09-18 08:35:00
1:55 AM,60.8,33.8,36,30.17,10.0,North,3.5,-,N/A,,Clear,350,2012-09-18 08:55:00
2:15 AM,59.0,33.8,39,30.16,10.0,North,3.5,-,N/A,,Clear,360,2012-09-18 09:15:00
2:35 AM,55.4,35.6,47,30.16,10.0,Calm,Calm,-,N/A,,Clear,0,2012-09-18 09:35:00
2:55 AM,53.6,33.8,47,30.16,10.0,SE,5.8,-,N/A,,Clear,140,2012-09-18 09:55:00
3:15 AM,53.6,35.6,51,30.16,10.0,ESE,3.5,-,N/A,,Clear,110,2012-09-18 10:15:00
3:35 AM,51.8,33.8,50,30.16,10.0,Calm,Calm,-,N/A,,Clear,0,2012-09-18 10:35:00
3:55 AM,53.6,35.6,51,30.15,10.0,ESE,3.5,-,N/A,,Clear,110,2012-09-18 10:55:00
4:15 AM,53.6,33.8,47,30.15,10.0,Calm,Calm,-,N/A,,Clear,0,2012-09-18 11:15:00
4:35 AM,51.8,32.0,47,30.15,10.0,SE,4.6,-,N/A,,Clear,130,2012-09-18 11:35:00
5:15 AM,50.0,32.0,50,30.16,10.0,ESE,4.6,-,N/A,,Clear,110,2012-09-18 12:15:00
5:35 AM,50.0,32.0,50,30.16,10.0,Calm,Calm,-,N/A,,Clear,0,2012-09-18 12:35:00
5:55 AM,50.0,32.0,50,30.17,10.0,Calm,Calm,-,N/A,,Clear,0,2012-09-18 12:55:00
6:35 AM,48.2,32.0,54,30.17,8.0,Calm,Calm,-,N/A,,Clear,0,2012-09-18 13:35:00
6:55 AM,48.2,32.0,54,30.17,8.0,ESE,4.6,-,N/A,,Clear,110,2012-09-18 13:55:00
7:15 AM,48.2,33.8,58,30.17,8.0,ESE,3.5,-,N/A,,Clear,120,2012-09-18 14:15:00
7:35 AM,53.6,32.0,44,30.18,9.0,SE,4.6,-,N/A,,Clear,140,2012-09-18 14:35:00
7:55 AM,57.2,32.0,38,30.18,9.0,East,3.5,-,N/A,,Clear,100,2012-09-18 14:55:00
8:15 AM,62.6,32.0,32,30.18,9.0,Calm,Calm,-,N/A,,Clear,0,2012-09-18 15:15:00
8:35 AM,64.4,32.0,30,30.18,9.0,Calm,Calm,-,N/A,,Clear,0,2012-09-18 15:35:00
8:55 AM,66.2,35.6,32,30.19,9.0,Calm,Calm,-,N/A,,Clear,0,2012-09-18 15:55:00
9:15 AM,71.6,35.6,27,30.19,9.0,Calm,Calm,-,N/A,,Clear,0,2012-09-18 16:15:00
9:35 AM,71.6,32.0,23,30.19,10.0,Calm,Calm,-,N/A,,Clear,0,2012-09-18 16:35:00
9:55 AM,75.2,32.0,21,30.18,9.0,Calm,Calm,-,N/A,,Clear,0,2012-09-18 16:55:00
10:15 AM,80.6,32.0,17,30.18,9.0,East,9.2,-,N/A,,Clear,90,2012-09-18 17:15:00
10:55 AM,82.4,28.4,14,30.18,10.0,ESE,11.5,17.3,N/A,,Clear,120,2012-09-18 17:55:00
11:15 AM,82.4,28.4,14,30.19,8.0,ESE,12.7,16.1,N/A,,Clear,120,2012-09-18 18:15:00
11:35 AM,82.4,28.4,14,30.19,9.0,SE,12.7,19.6,N/A,,Clear,140,2012-09-18 18:35:00
11:55 AM,84.2,26.6,12,30.19,10.0,ESE,16.1,19.6,N/A,,Clear,120,2012-09-18 18:55:00
12:15 PM,84.2,28.4,13,30.19,10.0,SE,12.7,19.6,N/A,,Clear,130,2012-09-18 19:15:00
12:35 PM,84.2,28.4,13,30.18,10.0,SE,11.5,17.3,N/A,,Clear,140,2012-09-18 19:35:00
12:55 PM,84.2,30.2,14,30.17,10.0,SE,9.2,17.3,N/A,,Clear,140,2012-09-18 19:55:00
1:15 PM,84.2,32.0,15,30.16,10.0,SSE,16.1,21.9,N/A,,Clear,150,2012-09-18 20:15:00
1:35 PM,84.2,32.0,15,30.16,10.0,SE,12.7,21.9,N/A,,Clear,140,2012-09-18 20:35:00
1:55 PM,84.2,32.0,15,30.15,10.0,SE,9.2,20.7,N/A,,Clear,130,2012-09-18 20:55:00
2:15 PM,84.2,32.0,15,30.14,10.0,SSE,4.6,21.9,N/A,,Clear,160,2012-09-18 21:15:00
2:35 PM,86.0,32.0,14,30.14,10.0,SE,8.1,17.3,N/A,,Clear,140,2012-09-18 21:35:00
2:55 PM,86.0,32.0,14,30.13,10.0,East,9.2,17.3,N/A,,Clear,100,2012-09-18 21:55:00
3:15 PM,86.0,32.0,14,30.13,10.0,East,10.4,18.4,N/A,,Clear,100,2012-09-18 22:15:00
3:35 PM,86.0,32.0,14,30.13,10.0,Calm,Calm,-,N/A,,Clear,0,2012-09-18 22:35:00
3:55 PM,82.4,35.6,19,30.12,10.0,NW,15.0,20.7,N/A,,Clear,320,2012-09-18 22:55:00
4:15 PM,82.4,35.6,19,30.12,10.0,NW,17.3,-,N/A,,Clear,320,2012-09-18 23:15:00
4:35 PM,80.6,37.4,21,30.13,9.0,NW,15.0,-,N/A,,Clear,320,2012-09-18 23:35:00
4:55 PM,80.6,37.4,21,30.13,10.0,NW,12.7,-,N/A,,Clear,320,2012-09-18 23:55:00
5:15 PM,80.6,37.4,21,30.13,10.0,NW,12.7,-,N/A,,Clear,310,2012-09-19 00:15:00
5:35 PM,77.0,37.4,24,30.14,10.0,NW,10.4,-,N/A,,Clear,310,2012-09-19 00:35:00
5:55 PM,77.0,39.2,26,30.14,10.0,WNW,12.7,-,N/A,,Clear,300,2012-09-19 00:55:00
6:15 PM,75.2,39.2,27,30.15,9.0,NW,10.4,-,N/A,,Clear,310,2012-09-19 01:15:00
6:35 PM,73.4,39.2,29,30.15,9.0,NW,10.4,-,N/A,,Clear,310,2012-09-19 01:35:00
6:55 PM,71.6,39.2,31,30.15,9.0,NW,9.2,-,N/A,,Clear,310,2012-09-19 01:55:00
7:15 PM,69.8,41.0,35,30.16,10.0,NW,8.1,-,N/A,,Clear,310,2012-09-19 02:15:00
7:35 PM,68.0,41.0,37,30.17,10.0,WNW,8.1,-,N/A,,Clear,300,2012-09-19 02:35:00
7:55 PM,68.0,41.0,37,30.18,10.0,WNW,8.1,-,N/A,,Clear,290,2012-09-19 02:55:00
8:15 PM,66.2,41.0,40,30.19,10.0,West,9.2,-,N/A,,Clear,270,2012-09-19 03:15:00
8:35 PM,64.4,41.0,42,30.19,10.0,West,8.1,-,N/A,,Clear,280,2012-09-19 03:35:00
8:55 PM,64.4,41.0,42,30.19,10.0,West,6.9,-,N/A,,Clear,270,2012-09-19 03:55:00
9:15 PM,62.6,39.2,42,30.19,10.0,West,8.1,-,N/A,,Clear,260,2012-09-19 04:15:00
9:35 PM,62.6,41.0,45,30.19,10.0,West,5.8,-,N/A,,Clear,270,2012-09-19 04:35:00
9:55 PM,62.6,41.0,45,30.20,10.0,Calm,Calm,-,N/A,,Clear,0,2012-09-19 04:55:00
10:15 PM,60.8,41.0,48,30.20,10.0,North,3.5,-,N/A,,Clear,360,2012-09-19 05:15:00
10:35 PM,60.8,41.0,48,30.20,10.0,North,4.6,-,N/A,,Clear,360,2012-09-19 05:35:00
10:55 PM,59.0,39.2,48,30.20,10.0,North,3.5,-,N/A,,Clear,350,2012-09-19 05:55:00
11:15 PM,59.0,41.0,51,30.20,10.0,NNE,3.5,-,N/A,,Clear,30,2012-09-19 06:15:00
11:35 PM,55.4,41.0,58,30.20,10.0,NE,3.5,-,N/A,,Clear,40,2012-09-19 06:35:00
11:55 PM,57.2,41.0,55,30.20,10.0,Calm,Calm,-,N/A,,Clear,0,2012-09-19 06:55:00